Location: *
(46.1200°N, 11.2700°E)
Time: 21:03:03
(UTC+00:00)

Cosmos 2366 rocket - Pass Details

Date: 02 March 2021
Orbit: 954 x 998 km, 82.9° (Epoch: 17 April)

Event Time Altitude Azimuth Distance (km) Brightness Sun altitude
Rises 19:40:04 0° 197° (SSW) 3,678 7.0 -27.6°
Reaches altitude 10° 19:42:36 10° 201° (SSW) 2,739 6.3 -28.1°
Maximum altitude 19:48:50 63° 282° (WNW) 1,107 4.4 -29.1°
Drops below altitude 10° 19:55:10 10° 3° (N) 2,776 6.6 -30.1°
Sets 19:57:45 0° 7° (N) 3,730 7.3 -30.5°
